EW7351 Weather Reports


time (UTC)temp
F
wind
direction
speed
knots
gust
knots
rain 1hr
in
rain 24hr
in
rain mn
in
humidity
%
barometer
mb
20260831102154 79 117 0.0 0.0 0.00 0.00 0.00 64 1013.8
20260831101852 79 117 0.0 0.0 0.00 0.00 0.00 64 1013.8
20260831101130 79 117 0.0 0.0 0.00 0.00 0.00 63 1013.8
20260831100824 80 117 0.0 0.0 0.00 0.00 0.00 62 1013.8
20260831095532 80 117 0.0 0.0 0.00 0.00 0.00 61 1013.8
20260831095028 80 208 0.0 0.0 0.00 0.00 0.00 61 1013.8
20260831094503 80 212 0.0 0.9 0.00 0.00 0.00 60 1013.8
20260831094000 80 212 0.0 0.9 0.00 0.00 0.00 60 1013.7
20260831093459 81 152 0.0 0.0 0.00 0.00 0.00 59 1013.7
20260831092930 81 152 0.0 0.0 0.00 0.00 0.00 58 1013.7
20260831092428 82 152 0.0 0.0 0.00 0.00 0.00 58 1013.6
20260831091900 82 152 0.0 0.0 0.00 0.00 0.00 57 1013.5
20260831091359 82 152 0.0 0.9 0.00 0.00 0.00 56 1013.5
20260831090830 83 152 0.0 0.9 0.00 0.00 0.00 55 1013.4
20260831090328 83 152 0.9 2.6 0.00 0.00 0.00 54 1013.4
20260831090050 84 149 0.9 3.5 0.00 0.00 0.00 54 1013.4
20260831085549 84 212 0.9 4.3 0.00 0.00 0.00 54 1013.4
20260831084751 84 216 0.0 4.3 0.00 0.00 0.00 53 1013.5
20260831084225 84 131 0.0 3.5 0.00 0.00 0.00 52 1013.3
20260831083659 84 127 0.9 3.5 0.00 0.00 0.00 52 1013.3
20260831083157 85 169 1.7 3.5 0.00 0.00 0.00 51 1013.3
20260831082655 85 210 2.6 5.2 0.00 0.00 0.00 51 1013.2
20260831082126 85 171 1.7 6.1 0.00 0.00 0.00 51 1013.2
20260831081624 85 200 1.7 5.2 0.00 0.00 0.00 51 1013.3
20260831081055 85 218 1.7 5.2 0.00 0.00 0.00 50 1013.3
20260831080555 85 156 1.7 5.2 0.00 0.00 0.00 50 1013.1
20260831080026 85 233 1.7 5.2 0.00 0.00 0.00 49 1013.1
20260831080009 85 149 1.7 5.2 0.00 0.00 0.00 50 1013.0
20260831075020 84 232 1.7 6.1 0.00 0.00 0.00 50 1013.0
20260831074519 84 131 1.7 6.1 0.00 0.00 0.00 50 1013.1
20260831073950 84 219 0.9 5.2 0.00 0.00 0.00 50 1013.0
20260831073448 83 243 0.9 5.2 0.00 0.00 0.00 52 1013.0
20260831073147 83 233 0.0 3.5 0.00 0.00 0.00 53 1013.0
20260831072646 83 231 0.0 1.7 0.00 0.00 0.00 54 1013.0
20260831071917 83 135 0.0 0.9 0.00 0.00 0.00 54 1013.0
20260831071411 83 218 0.0 0.9 0.00 0.00 0.00 53 1012.9
20260831071131 83 218 0.0 0.0 0.00 0.00 0.00 53 1012.9
20260831070346 83 218 0.0 0.0 0.00 0.00 0.00 52 1013.0
20260831065816 83 160 0.0 0.0 0.00 0.00 0.00 52 1013.0
20260831065538 83 160 0.0 0.0 0.00 0.00 0.00 52 1013.0
20260831064810 83 160 0.0 0.9 0.00 0.00 0.00 53 1013.1
20260831064310 83 169 0.0 0.9 0.00 0.00 0.00 53 1013.1
20260831063804 82 252 0.0 0.9 0.00 0.00 0.00 54 1013.2
20260831063304 82 210 0.0 0.9 0.00 0.00 0.00 55 1013.1
20260831063012 82 236 0.0 0.9 0.00 0.00 0.00 55 1013.0
20260831062253 82 236 0.0 0.9 0.00 0.00 0.00 55 1013.0
20260831061724 82 236 0.0 0.0 0.00 0.00 0.00 55 1013.0
20260831061224 82 236 0.0 0.0 0.00 0.00 0.00 54 1013.0
20260831060655 82 236 0.0 0.0 0.00 0.00 0.00 53 1013.1
20260831060634 83 236 0.0 0.0 0.00 0.00 0.00 53 1013.1
20260831055624 83 236 0.0 0.0 0.00 0.00 0.00 52 1013.1
20260831055100 83 236 0.0 0.0 0.00 0.00 0.00 51 1013.1
20260831054532 84 236 0.0 0.0 0.00 0.00 0.00 51 1013.2
20260831054030 85 236 0.0 0.0 0.00 0.00 0.00 49 1013.1
20260831053502 85 236 0.0 0.0 0.00 0.00 0.00 48 1013.1
20260831053000 85 236 0.0 0.9 0.00 0.00 0.00 47 1013.1
20260831052914 86 236 0.0 0.9 0.00 0.00 0.00 47 1013.0
20260831052421 86 236 0.0 0.9 0.00 0.00 0.00 47 1012.9
20260831051646 86 165 0.0 0.9 0.00 0.00 0.00 47 1012.9
20260831050923 85 146 0.0 0.9 0.00 0.00 0.00 47 1012.9
20260831050359 85 153 0.0 2.6 0.00 0.00 0.00 48 1012.9
20260831045843 84 215 0.0 1.7 0.00 0.00 0.00 49 1012.9
20260831045343 83 152 0.0 0.9 0.00 0.00 0.00 51 1012.9
20260831044839 83 152 0.0 0.9 0.00 0.00 0.00 52 1012.9
20260831044555 83 151 0.0 0.0 0.00 0.00 0.00 52 1012.9
20260831043838 83 151 0.0 0.0 0.00 0.00 0.00 51 1012.8
20260831043333 83 151 0.0 0.0 0.00 0.00 0.00 51 1012.8
20260831042814 83 151 0.0 0.0 0.00 0.00 0.00 50 1012.9
20260831042307 84 151 0.0 0.0 0.00 0.00 0.00 49 1012.8
20260831041805 85 151 0.0 0.0 0.00 0.00 0.00 49 1012.8
20260831041305 85 151 0.0 0.0 0.00 0.00 0.00 48 1012.8
20260831040800 86 150 0.0 0.0 0.00 0.00 0.00 46 1012.8
20260831040234 86 151 0.0 0.0 0.00 0.00 0.00 45 1012.8
20260831035731 87 151 0.0 0.0 0.00 0.00 0.00 45 1012.7
20260831035206 87 151 0.0 0.9 0.00 0.00 0.00 44 1012.7
20260831034636 87 243 0.0 0.9 0.00 0.00 0.00 45 1012.6
20260831034333 87 131 0.0 0.0 0.00 0.00 0.00 45 1012.5
20260831033543 87 131 0.0 0.0 0.00 0.00 0.00 45 1012.5
20260831033018 87 131 0.0 0.0 0.00 0.00 0.00 45 1012.6
20260831032450 87 131 0.0 0.0 0.00 0.00 0.00 45 1012.6
20260831031945 88 131 0.0 0.0 0.00 0.00 0.00 45 1012.6
20260831031442 88 131 0.0 0.0 0.00 0.00 0.00 45 1012.6
20260831030934 88 131 0.0 0.0 0.00 0.00 0.00 44 1012.6
20260831030429 88 131 0.0 0.0 0.00 0.00 0.00 45 1012.6
20260831025929 88 131 0.0 0.0 0.00 0.00 0.00 46 1012.5
20260831025427 89 131 0.0 0.0 0.00 0.00 0.00 46 1012.5
20260831024923 89 131 0.0 0.0 0.00 0.00 0.00 46 1012.4
20260831024421 89 131 0.0 0.0 0.00 0.00 0.00 46 1012.3
20260831023855 89 131 0.0 0.0 0.00 0.00 0.00 46 1012.2
20260831023354 89 131 0.0 1.7 0.00 0.00 0.00 46 1012.2
20260831022829 89 131 0.0 0.9 0.00 0.00 0.00 45 1012.2
20260831022302 90 131 0.0 0.9 0.00 0.00 0.00 45 1012.1
20260831021749 90 131 0.0 0.9 0.00 0.00 0.00 45 1012.0
20260831021252 90 131 0.0 0.9 0.00 0.00 0.00 44 1011.9
20260831020747 90 131 0.0 0.9 0.00 0.00 0.00 44 1011.7
20260831020246 91 131 0.0 0.9 0.00 0.00 0.00 43 1011.7
20260831015719 91 131 0.0 0.9 0.00 0.00 0.00 43 1011.6
20260831015434 91 131 0.0 1.7 0.00 0.00 0.00 42 1011.6
20260831014933 91 131 0.0 0.9 0.00 0.00 0.00 41 1011.5
20260831014409 92 120 0.0 1.7 0.00 0.00 0.00 39 1011.4
20260831013642 92 131 0.0 1.7 0.00 0.00 0.00 39 1011.4
20260831013127 92 132 0.9 3.5 0.00 0.00 0.00 38 1011.3
20260831012626 92 107 0.9 3.5 0.00 0.00 0.00 37 1011.4
20260831012128 93 123 0.9 3.5 0.00 0.00 0.00 36 1011.3
20260831011559 93 149 0.9 3.5 0.00 0.00 0.00 36 1011.3
20260831011056 93 104 0.9 3.5 0.00 0.00 0.00 36 1011.2
20260831010553 93 134 0.0 2.6 0.00 0.00 0.00 37 1011.3
20260831010051 93 131 0.0 2.6 0.00 0.00 0.00 37 1011.2
20260831005525 94 160 0.0 2.6 0.00 0.00 0.00 36 1011.1
20260831004959 94 118 0.0 1.7 0.00 0.00 0.00 35 1011.1
20260831004434 95 155 0.0 1.7 0.00 0.00 0.00 34 1011.1
20260831003905 95 150 0.9 5.2 0.00 0.00 0.00 33 1011.1
20260831003404 96 160 0.9 5.2 0.00 0.00 0.00 32 1011.1
20260831002859 96 134 0.9 3.5 0.00 0.00 0.00 31 1011.1
20260831002359 97 120 0.9 3.5 0.00 0.00 0.00 30 1011.1
20260831001901 97 120 1.7 6.1 0.00 0.00 0.00 30 1011.0
20260831001257 97 120 1.7 6.1 0.00 0.00 0.00 29 1011.1
20260831000754 97 124 1.7 6.1 0.00 0.00 0.00 29 1011.1
20260831000454 97 114 1.7 7.0 0.00 0.00 0.00 30 1011.2
20260830235929 97 121 2.6 7.0 0.00 0.00 0.00 30 1011.2
20260830235359 98 141 2.6 7.0 0.00 0.00 0.00 29 1011.3
20260830234633 98 147 2.6 7.0 0.00 0.00 0.00 29 1011.2
20260830234358 98 125 1.7 5.2 0.00 0.00 0.00 29 1011.2
20260830233603 98 193 0.9 4.3 0.00 0.00 0.00 29 1011.2
20260830233101 97 158 1.7 6.1 0.00 0.00 0.00 30 1011.3
20260830232533 97 142 2.6 6.1 0.00 0.00 0.00 30 1011.4
20260830232259 97 148 1.7 6.1 0.00 0.00 0.00 30 1011.3
20260830231504 97 128 1.7 7.8 0.00 0.00 0.00 31 1011.3
20260830231005 98 148 2.6 7.8 0.00 0.00 0.00 30 1011.4
20260830230433 98 267 3.5 9.6 0.00 0.00 0.00 29 1011.4
20260830230002 98 127 3.5 9.6 0.00 0.00 0.00 29 1011.4
20260830225233 97 171 2.6 7.0 0.00 0.00 0.00 30 1011.5
20260830224729 97 168 2.6 6.1 0.00 0.00 0.00 30 1011.5
20260830224204 97 124 2.6 6.1 0.00 0.00 0.00 29 1011.6
20260830223920 98 136 2.6 8.7 0.00 0.00 0.00 29 1011.5
20260830223158 99 150 2.6 8.7 0.00 0.00 0.00 28 1011.6
20260830222637 98 94 2.6 7.8 0.00 0.00 0.00 29 1011.5
20260830222128 97 120 1.7 7.8 0.00 0.00 0.00 31 1011.5
20260830221828 98 139 2.6 7.8 0.00 0.00 0.00 30 1011.6
20260830221057 98 231 2.6 7.8 0.00 0.00 0.00 29 1011.6
20260830220531 98 131 1.7 6.1 0.00 0.00 0.00 29 1011.6
20260830220006 98 140 2.6 7.0 0.00 0.00 0.00 25 1011.6
20260830215440 99 182 3.5 7.0 0.00 0.00 0.00 26 1011.5
20260830214911 99 163 2.6 7.0 0.00 0.00 0.00 26 1011.5
20260830214634 98 119 2.6 6.1 0.00 0.00 0.00 27 1011.6
20260830214107 99 119 3.5 6.1 0.00 0.00 0.00 26 1011.7
20260830213311 100 128 3.5 6.1 0.00 0.00 0.00 26 1011.7
20260830213254 100 110 3.5 9.6 0.00 0.00 0.00 26 1011.9
20260830212508 101 148 3.5 9.6 0.00 0.00 0.00 26 1012.0
20260830211741 101 136 3.5 10.4 0.00 0.00 0.00 26 1012.1
20260830211216 101 131 3.5 10.4 0.00 0.00 0.00 27 1012.0
20260830210650 100 221 3.5 8.7 0.00 0.00 0.00 26 1012.1
20260830210124 101 141 3.5 9.6 0.00 0.00 0.00 26 1012.2
20260830205557 100 90 3.5 9.6 0.00 0.00 0.00 27 1012.3
20260830205056 100 152 3.5 9.6 0.00 0.00 0.00 27 1012.3
20260830204526 100 271 4.3 11.3 0.00 0.00 0.00 27 1012.3
20260830204025 100 131 4.3 11.3 0.00 0.00 0.00 28 1012.4
20260830203518 100 175 4.3 8.7 0.00 0.00 0.00 27 1012.5
20260830203015 101 136 4.3 9.6 0.00 0.00 0.00 27 1012.6
20260830202512 101 227 4.3 7.8 0.00 0.00 0.00 27 1012.7
20260830201948 101 148 3.5 11.3 0.00 0.00 0.00 27 1012.7
20260830201423 100 137 4.3 11.3 0.00 0.00 0.00 28 1012.7
20260830200924 100 127 4.3 13.0 0.00 0.00 0.00 29 1012.7
20260830200401 100 77 3.5 13.0 0.00 0.00 0.00 30 1012.9
20260830195857 99 117 4.3 13.9 0.00 0.00 0.00 28 1013.0
20260830195549 99 127 4.3 13.9 0.00 0.00 0.00 28 1013.1
20260830195320 99 132 4.3 9.6 0.00 0.00 0.00 31 1013.2
20260830194306 99 144 5.2 12.2 0.00 0.00 0.00 30 1013.3
20260830193800 100 139 4.3 12.2 0.00 0.00 0.00 30 1013.3
20260830193302 101 128 4.3 11.3 0.00 0.00 0.00 30 1013.3
20260830192741 100 169 4.3 12.2 0.00 0.00 0.00 30 1013.3
20260830192242 100 121 3.5 12.2 0.00 0.00 0.00 29 1013.5
20260830191938 100 136 3.5 12.2 0.00 0.00 0.00 29 1013.6
20260830191219 100 137 5.2 9.6 0.00 0.00 0.00 32 1013.6
20260830190706 100 147 6.1 10.4 0.00 0.00 0.00 30 1013.7
20260830190208 100 231 5.2 10.4 0.00 0.00 0.00 30 1013.7
20260830185646 100 220 3.5 9.6 0.00 0.00 0.00 31 1013.7
20260830185128 99 165 4.3 10.4 0.00 0.00 0.00 30 1013.8
20260830184630 99 191 5.2 10.4 0.00 0.00 0.00 31 1013.9
20260830184112 99 153 4.3 12.2 0.00 0.00 0.00 32 1013.9
20260830183612 99 138 5.2 12.2 0.00 0.00 0.00 32 1013.9
20260830183115 98 240 6.1 10.4 0.00 0.00 0.00 32 1014.0
20260830182607 98 167 5.2 10.4 0.00 0.00 0.00 32 1014.1
20260830182334 98 218 4.3 10.4 0.00 0.00 0.00 32 1014.1
20260830181547 98 136 5.2 10.4 0.00 0.00 0.00 33 1014.3
20260830181031 98 140 5.2 10.4 0.00 0.00 0.00 32 1014.3
20260830180734 98 209 4.3 12.2 0.00 0.00 0.00 33 1014.4
20260830175947 98 200 5.2 12.2 0.00 0.00 0.00 34 1014.6
20260830175447 98 159 5.2 9.6 0.00 0.00 0.00 35 1014.6
20260830174946 98 214 4.3 9.6 0.00 0.00 0.00 33 1014.6
20260830174448 98 215 3.5 11.3 0.00 0.00 0.00 35 1014.7
20260830173936 98 220 4.3 11.3 0.00 0.00 0.00 37 1014.8
20260830173435 97 114 4.3 9.6 0.00 0.00 0.00 35 1014.8
20260830172931 97 172 4.3 8.7 0.00 0.00 0.00 37 1015.0
20260830172414 96 235 5.2 7.8 0.00 0.00 0.00 37 1015.0
20260830172134 96 207 4.3 7.8 0.00 0.00 0.00 37 1015.1
20260830171413 96 118 3.5 8.7 0.00 0.00 0.00 39 1015.2
20260830170912 96 127 4.3 8.7 0.00 0.00 0.00 39 1015.3
20260830170415 96 235 4.3 10.4 0.00 0.00 0.00 39 1015.3
20260830170112 96 284 3.5 9.6 0.00 0.00 0.00 40 1015.4
20260830165320 95 256 4.3 8.7 0.00 0.00 0.00 41 1015.5
20260830164819 95 169 3.5 13.0 0.00 0.00 0.00 40 1015.5
20260830164314 95 84 3.5 8.7 0.00 0.00 0.00 41 1015.5
20260830164006 95 250 3.5 8.7 0.00 0.00 0.00 42 1015.6
20260830163242 95 262 3.5 7.8 0.00 0.00 0.00 43 1015.6
20260830162940 94 202 3.5 7.8 0.00 0.00 0.00 43 1015.6
20260830162154 94 168 2.6 7.8 0.00 0.00 0.00 44 1015.7
20260830161651 94 226 2.6 7.8 0.00 0.00 0.00 43 1015.7
20260830161147 94 167 2.6 7.8 0.00 0.00 0.00 45 1015.7
20260830160621 94 232 2.6 7.8 0.00 0.00 0.00 44 1015.6
20260830160051 93 266 2.6 7.8 0.00 0.00 0.00 44 1015.6
20260830155551 93 210 2.6 7.8 0.00 0.00 0.00 46 1015.6
20260830155027 93 252 2.6 7.8 0.00 0.00 0.00 46 1015.6
20260830154459 92 225 4.3 8.7 0.00 0.00 0.00 47 1015.5
20260830154431 91 210 3.5 8.7 0.00 0.00 0.00 48 1015.6
20260830153455 91 186 2.6 6.1 0.00 0.00 0.00 48 1015.6
20260830152950 91 175 1.7 7.0 0.00 0.00 0.00 49 1015.7
20260830152448 91 193 1.7 7.0 0.00 0.00 0.00 50 1015.7
20260830151919 90 252 1.7 6.1 0.00 0.00 0.00 52 1015.8
20260830151415 89 216 2.6 6.1 0.00 0.00 0.00 53 1015.7
20260830150846 89 224 2.6 6.1 0.00 0.00 0.00 54 1015.7
20260830150347 89 179 2.6 6.1 0.00 0.00 0.00 54 1015.7
20260830145830 89 212 2.6 6.1 0.00 0.00 0.00 55 1015.7
20260830145330 88 250 1.7 5.2 0.00 0.00 0.00 56 1015.7
20260830144832 88 183 0.9 6.1 0.00 0.00 0.00 57 1015.7
20260830144303 87 149 1.7 6.1 0.00 0.00 0.00 58 1015.6
20260830143759 86 247 1.7 6.1 0.00 0.00 0.00 60 1015.6
20260830143234 86 224 1.7 6.1 0.00 0.00 0.00 60 1015.6
20260830142949 85 203 1.7 5.2 0.00 0.00 0.00 60 1015.7
20260830142228 85 240 1.7 5.2 0.00 0.00 0.00 61 1015.8
20260830141926 85 161 1.7 4.3 0.00 0.00 0.00 62 1015.8
20260830141134 85 240 1.7 4.3 0.00 0.00 0.00 62 1015.8
20260830140632 84 134 0.9 3.5 0.00 0.00 0.00 63 1015.8
20260830140113 83 235 0.9 5.2 0.00 0.00 0.00 64 1015.8
20260830135535 83 233 1.7 5.2 0.00 0.00 0.00 65 1015.7
20260830135031 82 243 1.7 4.3 0.00 0.00 0.00 66 1015.7
20260830134506 82 149 1.7 4.3 0.00 0.00 0.00 66 1015.7
20260830133939 82 212 1.7 5.2 0.00 0.00 0.00 67 1015.7
20260830133436 81 257 2.6 5.2 0.00 0.00 0.00 67 1015.7
20260830132935 81 223 1.7 6.1 0.00 0.00 0.00 68 1015.6
20260830132406 81 107 0.9 5.2 0.00 0.00 0.00 68 1015.5
20260830131904 80 150 1.7 5.2 0.00 0.00 0.00 68 1015.5
20260830131348 80 231 2.6 6.1 0.00 0.00 0.00 68 1015.4
20260830130846 80 207 1.7 6.1 0.00 0.00 0.00 68 1015.4
20260830130348 80 238 1.7 6.1 0.00 0.00 0.00 69 1015.4
20260830125823 80 178 1.7 6.1 0.00 0.00 0.00 68 1015.3
20260830125256 80 165 1.7 6.1 0.00 0.00 0.00 69 1015.2
20260830124729 79 153 0.9 4.3 0.00 0.00 0.00 68 1015.1
20260830124432 79 174 0.9 3.5 0.00 0.00 0.00 68 1015.1
20260830123638 79 240 0.9 3.5 0.00 0.00 0.00 68 1015.0
20260830123110 79 125 0.9 3.5 0.00 0.00 0.00 68 1014.9
20260830122834 79 226 0.9 4.3 0.00 0.00 0.00 68 1014.9
20260830122321 79 157 0.9 4.3 0.00 0.00 0.00 67 1014.8
20260830121558 79 203 0.9 3.5 0.00 0.00 0.00 67 1014.8
20260830121030 79 248 0.9 3.5 0.00 0.00 0.00 66 1014.7
20260830120528 79 142 0.9 5.2 0.00 0.00 0.00 66 1014.6
20260830120000 79 243 0.9 5.2 0.00 0.00 0.00 66 1014.6
20260830115459 79 215 0.9 4.3 0.00 0.00 0.00 66 1014.6
20260830115158 79 258 0.9 3.5 0.00 0.00 0.00 65 1014.4
20260830114404 80 121 0.0 3.5 0.00 0.00 0.00 64 1014.3
20260830114101 80 132 0.0 3.5 0.00 0.00 0.00 64 1014.3
20260830113314 80 116 0.9 4.3 0.00 0.00 0.00 63 1014.3
20260830112810 80 153 0.9 4.3 0.00 0.00 0.00 63 1014.2
20260830112308 80 146 0.9 3.5 0.00 0.00 0.00 62 1014.1
20260830112001 80 255 0.9 3.5 0.00 0.00 0.00 62 1014.1
20260830111240 80 158 0.9 3.5 0.00 0.00 0.00 61 1014.0
20260830110713 81 219 0.9 3.5 0.00 0.00 0.00 61 1013.9
20260830110144 81 148 0.9 5.2 0.00 0.00 0.00 61 1013.9
20260830105642 81 238 0.9 5.2 0.00 0.00 0.00 60 1013.9
20260830105114 81 129 0.9 4.3 0.00 0.00 0.00 60 1013.8
20260830104613 81 257 1.7 5.2 0.00 0.00 0.00 59 1013.8
20260830104050 81 243 1.7 5.2 0.00 0.00 0.00 59 1013.8
20260830103536 81 236 1.7 4.3 0.00 0.00 0.00 59 1013.8
20260830103008 81 231 0.9 4.3 0.00 0.00 0.00 60 1013.8